Overview Statistics Trail Chart Weather Telemetry Raw packets
 

This is the latest recevied weather packets stored in our database for station/object PA1CD-13. If no packets are shown the sender has not sent any weather packets the latest 10 day(s).

<< 269 270 271 272 273 274 275 >>
Time Temp. Humidity Pressure Rain* Wind** Luminosity Snow
1787814906 18.33° C 80% 1011.5 hPa 0 mm - 302 W/m² -
1787814787 18.33° C 80% 1011.5 hPa 0 mm - 287 W/m² -
1787814666 18.33° C 81% 1011.7 hPa 0 mm - 287 W/m² -
1787814545 18.33° C 81% 1011.6 hPa 0 mm - 276 W/m² -
1787814425 17.78° C 81% 1011.8 hPa 0 mm - 271 W/m² -
1787814305 17.78° C 82% 1011.7 hPa 0 mm - 248 W/m² -
1787814186 17.78° C 82% 1011.7 hPa 0 mm - 248 W/m² -
1787814066 17.78° C 82% 1011.8 hPa 0 mm - 248 W/m² -
1787813945 17.78° C 82% 1011.7 hPa 0 mm - 246 W/m² -
1787813825 17.78° C 83% 1011.8 hPa 0 mm - 230 W/m² -
1787813703 17.78° C 83% 1011.8 hPa 0 mm - 222 W/m² -
1787813586 17.22° C 83% 1011.9 hPa 0 mm - 216 W/m² -
1787813466 17.22° C 84% 1011.9 hPa 0 mm - 211 W/m² -
1787813345 17.22° C 84% 1012 hPa 0 mm - 215 W/m² -
1787813225 17.22° C 84% 1011.9 hPa 0 mm - 220 W/m² -
1787813106 17.22° C 84% 1011.9 hPa 0 mm - 216 W/m² -
1787812988 17.22° C 84% 1012 hPa 0 mm - 215 W/m² -
1787812865 16.67° C 85% 1012 hPa 0 mm - 200 W/m² -
1787812746 16.67° C 85% 1012.1 hPa 0 mm - 195 W/m² -
1787812625 16.67° C 85% 1012.1 hPa 0 mm - 192 W/m² -
1787812505 16.67° C 86% 1012.1 hPa 0 mm - 185 W/m² -
1787812386 16.67° C 86% 1012.1 hPa 0 mm - 185 W/m² -
1787812265 16.67° C 86% 1012.1 hPa 0 mm - 183 W/m² -
1787812146 16.67° C 87% 1012.1 hPa 0 mm - 172 W/m² -
1787812026 16.67° C 87% 1012.1 hPa 0 mm - 167 W/m² -

* Rain latest hour (hover to see other rain measurements)
** Current wind speed in m/s (hover to see current wind gust speed)